contact:dominique.lefevre@mio.osupytheas.fr, maurice.libes@osupytheas.fr, didier.mallarino@osupytheas.fr
Project:EMSO http://www.emso-fr.org/EMSO-France
Depth: 2436.0 m
Title:EMSO Ligure Ouest : Data MII capteur CSTAR
DateTime,Latitude,Longitude,Instrument_Serial,Reference_Counts,Signal_Counts,Corrected_Signal_raw_counts,Calculated_Beam_c_inverse_meters,Internal_thermistor_counts
DateTime,Latitude,Longitude,Instrument_Serial,Reference_Counts,Signal_Counts,Corrected_Signal_raw_counts,Calculated_Beam_c_inverse_meters,Internal_thermistor_counts
2022-05-18T00:00:57,42.805,6.029,CST-1368DR,4745,5359,12042,01.040,551
2022-05-18T00:03:59,42.805,6.029,CST-1368DR,4745,5357,12038,01.041,551
2022-05-18T00:07:00,42.805,6.029,CST-1368DR,4745,5358,12040,01.040,551
2022-05-18T00:10:02,42.805,6.029,CST-1368DR,4745,5357,12036,01.042,551
2022-05-18T00:13:03,42.805,6.029,CST-1368DR,4745,5357,12038,01.041,551
2022-05-18T00:16:05,42.805,6.029,CST-1368DR,4745,5356,12035,01.042,551
2022-05-18T00:19:06,42.805,6.029,CST-1368DR,4745,5358,12039,01.041,551
2022-05-18T00:22:08,42.805,6.029,CST-1368DR,4745,5357,12036,01.042,551
2022-05-18T00:25:10,42.805,6.029,CST-1368DR,4745,5359,12042,01.040,551
2022-05-18T00:28:11,42.805,6.029,CST-1368DR,4745,5357,12037,01.041,551
2022-05-18T00:31:13,42.805,6.029,CST-1368DR,4745,5356,12035,01.042,551
2022-05-18T00:34:14,42.805,6.029,CST-1368DR,4745,5355,12031,01.043,551
2022-05-18T00:37:16,42.805,6.029,CST-1368DR,4745,5351,12024,01.046,551
2022-05-18T00:40:17,42.805,6.029,CST-1368DR,4745,5360,12043,01.039,551
2022-05-18T00:43:19,42.805,6.029,CST-1368DR,4745,5358,12038,01.041,551
2022-05-18T00:46:21,42.805,6.029,CST-1368DR,4745,5358,12038,01.041,551
2022-05-18T00:49:22,42.805,6.029,CST-1368DR,4745,5359,12042,01.040,551
2022-05-18T00:52:24,42.805,6.029,CST-1368DR,4745,5361,12047,01.038,551
2022-05-18T00:55:25,42.805,6.029,CST-1368DR,4745,5360,12044,01.039,551
2022-05-18T00:58:27,42.805,6.029,CST-1368DR,4745,5357,12037,01.041,551
2022-05-18T01:01:29,42.805,6.029,CST-1368DR,4745,5359,12042,01.040,551
2022-05-18T01:04:30,42.805,6.029,CST-1368DR,4745,5360,12044,01.039,551
2022-05-18T01:07:32,42.805,6.029,CST-1368DR,4745,5362,12047,01.038,551
2022-05-18T01:10:33,42.805,6.029,CST-1368DR,4745,5355,12033,01.043,551
2022-05-18T01:13:35,42.805,6.029,CST-1368DR,4745,5358,12038,01.041,551
2022-05-18T01:16:36,42.805,6.029,CST-1368DR,4745,5361,12045,01.039,551
2022-05-18T01:19:38,42.805,6.029,CST-1368DR,4745,5359,12042,01.040,551
2022-05-18T01:22:40,42.805,6.029,CST-1368DR,4745,5355,12033,01.043,551
2022-05-18T01:25:41,42.805,6.029,CST-1368DR,4745,5356,12034,01.042,551
2022-05-18T01:28:43,42.805,6.029,CST-1368DR,4745,5359,12040,01.040,551
2022-05-18T01:31:44,42.805,6.029,CST-1368DR,4745,5358,12038,01.041,551
2022-05-18T01:34:46,42.805,6.029,CST-1368DR,4745,5357,12038,01.041,551
2022-05-18T01:37:47,42.805,6.029,CST-1368DR,4745,5358,12040,01.040,551
2022-05-18T01:40:49,42.805,6.029,CST-1368DR,4745,5358,12039,01.041,551
2022-05-18T01:43:51,42.805,6.029,CST-1368DR,4745,5355,12031,01.043,551
2022-05-18T01:46:52,42.805,6.029,CST-1368DR,4745,5357,12038,01.041,551
2022-05-18T01:49:54,42.805,6.029,CST-1368DR,4745,5357,12036,01.042,551
2022-05-18T01:52:55,42.805,6.029,CST-1368DR,4745,5358,12038,01.041,551
2022-05-18T01:55:57,42.805,6.029,CST-1368DR,4745,5360,12043,01.039,551
2022-05-18T01:58:59,42.805,6.029,CST-1368DR,4745,5359,12042,01.040,551
2022-05-18T02:02:00,42.805,6.029,CST-1368DR,4745,5359,12042,01.040,551
2022-05-18T02:05:02,42.805,6.029,CST-1368DR,4745,5359,12042,01.040,551
2022-05-18T02:08:03,42.805,6.029,CST-1368DR,4745,5355,12033,01.043,551
2022-05-18T02:11:05,42.805,6.029,CST-1368DR,4745,5359,12042,01.040,551
2022-05-18T02:14:06,42.805,6.029,CST-1368DR,4745,5360,12043,01.039,551
2022-05-18T02:17:08,42.805,6.029,CST-1368DR,4745,5360,12044,01.039,551
2022-05-18T02:20:10,42.805,6.029,CST-1368DR,4745,5358,12039,01.041,551
2022-05-18T02:23:11,42.805,6.029,CST-1368DR,4745,5360,12043,01.039,551
2022-05-18T02:26:13,42.805,6.029,CST-1368DR,4745,5362,12048,01.038,551
2022-05-18T02:29:14,42.805,6.029,CST-1368DR,4745,5361,12047,01.038,551
2022-05-18T02:32:16,42.805,6.029,CST-1368DR,4745,5357,12037,01.041,551
2022-05-18T02:35:17,42.805,6.029,CST-1368DR,4745,5359,12040,01.040,551
2022-05-18T02:38:19,42.805,6.029,CST-1368DR,4745,5359,12042,01.040,551
2022-05-18T02:41:21,42.805,6.029,CST-1368DR,4745,5358,12040,01.040,551
2022-05-18T02:44:22,42.805,6.029,CST-1368DR,4745,5358,12039,01.041,551
2022-05-18T02:47:24,42.805,6.029,CST-1368DR,4745,5357,12038,01.041,551
2022-05-18T02:50:25,42.805,6.029,CST-1368DR,4745,5355,12033,01.043,551
2022-05-18T02:53:27,42.805,6.029,CST-1368DR,4745,5356,12035,01.042,551
2022-05-18T02:56:29,42.805,6.029,CST-1368DR,4745,5358,12039,01.041,551
2022-05-18T02:59:30,42.805,6.029,CST-1368DR,4745,5358,12039,01.041,551
2022-05-18T03:02:32,42.805,6.029,CST-1368DR,4745,5359,12042,01.040,551
2022-05-18T03:05:33,42.805,6.029,CST-1368DR,4745,5358,12039,01.041,551
2022-05-18T03:08:35,42.805,6.029,CST-1368DR,4745,5361,12045,01.039,551
2022-05-18T03:11:36,42.805,6.029,CST-1368DR,4745,5360,12043,01.039,551
2022-05-18T03:14:38,42.805,6.029,CST-1368DR,4745,5359,12040,01.040,551
2022-05-18T03:17:40,42.805,6.029,CST-1368DR,4745,5358,12039,01.041,551
2022-05-18T03:20:41,42.805,6.029,CST-1368DR,4745,5359,12040,01.040,551
2022-05-18T03:23:43,42.805,6.029,CST-1368DR,4745,5361,12046,01.038,551
2022-05-18T03:26:44,42.805,6.029,CST-1368DR,4745,5361,12045,01.039,551
2022-05-18T03:29:46,42.805,6.029,CST-1368DR,4745,5356,12035,01.042,551
2022-05-18T03:32:48,42.805,6.029,CST-1368DR,4745,5361,12045,01.039,551
2022-05-18T03:35:49,42.805,6.029,CST-1368DR,4745,5361,12045,01.039,551
2022-05-18T03:38:51,42.805,6.029,CST-1368DR,4745,5360,12044,01.039,551
2022-05-18T03:41:52,42.805,6.029,CST-1368DR,4745,5357,12036,01.042,551
2022-05-18T03:44:54,42.805,6.029,CST-1368DR,4745,5358,12038,01.041,551
2022-05-18T03:47:55,42.805,6.029,CST-1368DR,4745,5357,12038,01.041,551
2022-05-18T03:50:57,42.805,6.029,CST-1368DR,4745,5357,12037,01.041,551
2022-05-18T03:53:59,42.805,6.029,CST-1368DR,4745,5355,12032,01.043,551
2022-05-18T03:57:00,42.805,6.029,CST-1368DR,4745,5356,12035,01.042,551
2022-05-18T04:00:02,42.805,6.029,CST-1368DR,4745,5357,12036,01.042,551
2022-05-18T04:03:03,42.805,6.029,CST-1368DR,4745,5357,12037,01.041,551
2022-05-18T04:06:05,42.805,6.029,CST-1368DR,4745,5357,12036,01.042,551
2022-05-18T04:09:06,42.805,6.029,CST-1368DR,4745,5358,12039,01.041,551
2022-05-18T04:12:08,42.805,6.029,CST-1368DR,4745,5356,12035,01.042,551
2022-05-18T04:15:10,42.805,6.029,CST-1368DR,4745,5353,12028,01.044,551
2022-05-18T04:18:11,42.805,6.029,CST-1368DR,4745,5355,12033,01.043,551
2022-05-18T04:21:13,42.805,6.029,CST-1368DR,4745,5355,12033,01.043,551
2022-05-18T04:24:14,42.805,6.029,CST-1368DR,4745,5354,12030,01.044,551
2022-05-18T04:27:16,42.805,6.029,CST-1368DR,4745,5355,12033,01.043,551
2022-05-18T04:30:18,42.805,6.029,CST-1368DR,4745,5352,12025,01.045,551
2022-05-18T04:33:19,42.805,6.029,CST-1368DR,4745,5356,12034,01.042,551
2022-05-18T04:36:21,42.805,6.029,CST-1368DR,4745,5355,12033,01.043,551
2022-05-18T04:39:22,42.805,6.029,CST-1368DR,4745,5351,12022,01.046,551
2022-05-18T04:42:24,42.805,6.029,CST-1368DR,4745,5350,12020,01.047,551
2022-05-18T04:45:25,42.805,6.029,CST-1368DR,4745,5349,12020,01.047,551
2022-05-18T04:48:27,42.805,6.029,CST-1368DR,4745,5355,12031,01.043,551
2022-05-18T04:51:29,42.805,6.029,CST-1368DR,4745,5350,12021,01.047,551
2022-05-18T04:54:30,42.805,6.029,CST-1368DR,4744,5348,12020,01.047,551
2022-05-18T04:57:32,42.805,6.029,CST-1368DR,4744,5349,12021,01.047,551
2022-05-18T05:00:33,42.805,6.029,CST-1368DR,4745,5352,12025,01.045,551
2022-05-18T05:03:35,42.805,6.029,CST-1368DR,4745,5351,12024,01.046,551
2022-05-18T05:06:36,42.805,6.029,CST-1368DR,4745,5351,12023,01.046,551
2022-05-18T05:09:38,42.805,6.029,CST-1368DR,4745,5349,12019,01.047,551
2022-05-18T05:12:40,42.805,6.029,CST-1368DR,4745,5353,12027,01.045,551
2022-05-18T05:15:41,42.805,6.029,CST-1368DR,4744,5347,12018,01.048,551
2022-05-18T05:18:43,42.805,6.029,CST-1368DR,4744,5354,12033,01.043,551
2022-05-18T05:21:44,42.805,6.029,CST-1368DR,4744,5351,12025,01.045,551
2022-05-18T05:24:46,42.805,6.029,CST-1368DR,4745,5351,12022,01.046,551
2022-05-18T05:27:48,42.805,6.029,CST-1368DR,4745,5349,12019,01.047,551
2022-05-18T05:30:49,42.805,6.029,CST-1368DR,4744,5346,12015,01.049,551
2022-05-18T05:33:51,42.805,6.029,CST-1368DR,4745,5349,12018,01.048,551
2022-05-18T05:36:52,42.805,6.029,CST-1368DR,4744,5354,12032,01.043,551
2022-05-18T05:39:54,42.805,6.029,CST-1368DR,4744,5349,12020,01.047,551
2022-05-18T05:42:55,42.805,6.029,CST-1368DR,4744,5353,12031,01.043,551
2022-05-18T05:45:57,42.805,6.029,CST-1368DR,4744,5348,12019,01.047,551
2022-05-18T05:48:59,42.805,6.029,CST-1368DR,4744,5349,12020,01.047,551
2022-05-18T05:52:00,42.805,6.029,CST-1368DR,4744,5348,12020,01.047,551
2022-05-18T05:55:02,42.805,6.029,CST-1368DR,4745,5347,12014,01.049,551
2022-05-18T05:58:03,42.805,6.029,CST-1368DR,4745,5350,12021,01.047,551
2022-05-18T06:01:05,42.805,6.029,CST-1368DR,4745,5354,12030,01.044,551
2022-05-18T06:04:06,42.805,6.029,CST-1368DR,4745,5347,12014,01.049,551
2022-05-18T06:07:08,42.805,6.029,CST-1368DR,4745,5349,12019,01.047,551
2022-05-18T06:10:10,42.805,6.029,CST-1368DR,4745,5347,12014,01.049,551
2022-05-18T06:13:11,42.805,6.029,CST-1368DR,4745,5354,12030,01.044,551
2022-05-18T06:16:13,42.805,6.029,CST-1368DR,4744,5347,12016,01.048,551
2022-05-18T06:19:14,42.805,6.029,CST-1368DR,4745,5349,12018,01.048,551
2022-05-18T06:22:16,42.805,6.029,CST-1368DR,4744,5348,12020,01.047,551
2022-05-18T06:25:18,42.805,6.029,CST-1368DR,4745,5348,12017,01.048,551
2022-05-18T06:28:19,42.805,6.029,CST-1368DR,4744,5347,12016,01.048,551
2022-05-18T06:31:21,42.805,6.029,CST-1368DR,4744,5351,12025,01.045,551
2022-05-18T06:34:22,42.805,6.029,CST-1368DR,4745,5350,12021,01.047,551
2022-05-18T06:37:24,42.805,6.029,CST-1368DR,4744,5346,12014,01.049,551
2022-05-18T06:40:25,42.805,6.029,CST-1368DR,4745,5350,12021,01.047,551
2022-05-18T06:43:27,42.805,6.029,CST-1368DR,4745,5346,12012,01.050,551
2022-05-18T06:46:29,42.805,6.029,CST-1368DR,4744,5348,12020,01.047,551
2022-05-18T06:49:30,42.805,6.029,CST-1368DR,4744,5349,12022,01.046,551
2022-05-18T06:52:32,42.805,6.029,CST-1368DR,4744,5350,12023,01.046,551
2022-05-18T06:55:33,42.805,6.029,CST-1368DR,4744,5349,12022,01.046,551
2022-05-18T06:58:35,42.805,6.029,CST-1368DR,4744,5351,12025,01.045,551
2022-05-18T07:01:37,42.805,6.029,CST-1368DR,4744,5349,12020,01.047,551
2022-05-18T07:04:38,42.805,6.029,CST-1368DR,4744,5352,12029,01.044,551
2022-05-18T07:07:40,42.805,6.029,CST-1368DR,4744,5346,12014,01.049,551
2022-05-18T07:10:41,42.805,6.029,CST-1368DR,4744,5349,12020,01.047,551
2022-05-18T07:13:43,42.805,6.029,CST-1368DR,4745,5353,12028,01.044,551
2022-05-18T07:16:44,42.805,6.029,CST-1368DR,4744,5354,12033,01.043,551
2022-05-18T07:19:46,42.805,6.029,CST-1368DR,4744,5353,12029,01.044,551
2022-05-18T07:22:48,42.805,6.029,CST-1368DR,4744,5348,12018,01.048,551
2022-05-18T07:25:49,42.805,6.029,CST-1368DR,4744,5347,12016,01.048,551
2022-05-18T07:28:51,42.805,6.029,CST-1368DR,4745,5353,12029,01.044,551
2022-05-18T07:31:52,42.805,6.029,CST-1368DR,4744,5351,12027,01.045,551
2022-05-18T07:34:54,42.805,6.029,CST-1368DR,4744,5348,12019,01.047,551
2022-05-18T07:37:55,42.805,6.029,CST-1368DR,4744,5347,12017,01.048,551
2022-05-18T07:40:57,42.805,6.029,CST-1368DR,4744,5352,12029,01.044,551
2022-05-18T07:43:59,42.805,6.029,CST-1368DR,4744,5347,12016,01.048,551
2022-05-18T07:47:00,42.805,6.029,CST-1368DR,4744,5348,12019,01.047,551
2022-05-18T07:50:02,42.805,6.029,CST-1368DR,4744,5350,12024,01.046,551
2022-05-18T07:53:03,42.805,6.029,CST-1368DR,4744,5352,12027,01.045,551
2022-05-18T07:56:05,42.805,6.029,CST-1368DR,4744,5347,12017,01.048,551
2022-05-18T07:59:07,42.805,6.029,CST-1368DR,4744,5349,12022,01.046,551
2022-05-18T08:02:08,42.805,6.029,CST-1368DR,4744,5352,12027,01.045,551
2022-05-18T08:05:10,42.805,6.029,CST-1368DR,4744,5347,12016,01.048,551
2022-05-18T08:08:11,42.805,6.029,CST-1368DR,4744,5350,12024,01.046,551
2022-05-18T08:11:13,42.805,6.029,CST-1368DR,4744,5348,12019,01.047,551
2022-05-18T08:14:14,42.805,6.029,CST-1368DR,4744,5346,12015,01.049,551
2022-05-18T08:17:16,42.805,6.029,CST-1368DR,4744,5348,12018,01.048,551
2022-05-18T08:20:18,42.805,6.029,CST-1368DR,4744,5350,12023,01.046,551
2022-05-18T08:23:19,42.805,6.029,CST-1368DR,4744,5348,12018,01.048,551
2022-05-18T08:26:21,42.805,6.029,CST-1368DR,4744,5353,12030,01.044,551
2022-05-18T08:29:22,42.805,6.029,CST-1368DR,4744,5348,12018,01.048,551
2022-05-18T08:32:24,42.805,6.029,CST-1368DR,4744,5348,12019,01.047,551
2022-05-18T08:35:25,42.805,6.029,CST-1368DR,4744,5353,12031,01.043,551
2022-05-18T08:38:27,42.805,6.029,CST-1368DR,4744,5354,12032,01.043,551
2022-05-18T08:41:29,42.805,6.029,CST-1368DR,4744,5352,12029,01.044,551
2022-05-18T08:44:30,42.805,6.029,CST-1368DR,4744,5355,12035,01.042,551
2022-05-18T08:47:32,42.805,6.029,CST-1368DR,4744,5346,12015,01.049,551
2022-05-18T08:50:33,42.805,6.029,CST-1368DR,4744,5349,12020,01.047,551
2022-05-18T08:53:35,42.805,6.029,CST-1368DR,4744,5347,12017,01.048,551
2022-05-18T08:56:36,42.805,6.029,CST-1368DR,4744,5347,12016,01.048,551
2022-05-18T08:59:38,42.805,6.029,CST-1368DR,4744,5347,12016,01.048,551
2022-05-18T09:02:40,42.805,6.029,CST-1368DR,4744,5346,12015,01.049,551
2022-05-18T09:05:41,42.805,6.029,CST-1368DR,4744,5347,12017,01.048,551
2022-05-18T09:08:43,42.805,6.029,CST-1368DR,4744,5348,12019,01.047,551
2022-05-18T09:11:44,42.805,6.029,CST-1368DR,4744,5351,12025,01.045,551
2022-05-18T09:14:46,42.805,6.029,CST-1368DR,4744,5347,12017,01.048,551
2022-05-18T09:17:48,42.805,6.029,CST-1368DR,4744,5350,12023,01.046,551
2022-05-18T09:20:49,42.805,6.029,CST-1368DR,4744,5346,12014,01.049,551
2022-05-18T09:23:51,42.805,6.029,CST-1368DR,4744,5349,12021,01.047,551
2022-05-18T09:26:52,42.805,6.029,CST-1368DR,4744,5353,12031,01.043,551
2022-05-18T09:29:54,42.805,6.029,CST-1368DR,4744,5349,12021,01.047,551
2022-05-18T09:32:55,42.805,6.029,CST-1368DR,4744,5348,12019,01.047,551
2022-05-18T09:35:57,42.805,6.029,CST-1368DR,4744,5350,12024,01.046,551
2022-05-18T09:38:59,42.805,6.029,CST-1368DR,4744,5351,12027,01.045,551
2022-05-18T09:42:00,42.805,6.029,CST-1368DR,4744,5348,12019,01.047,551
2022-05-18T09:45:02,42.805,6.029,CST-1368DR,4744,5352,12028,01.044,551
2022-05-18T09:48:03,42.805,6.029,CST-1368DR,4744,5348,12019,01.047,551
2022-05-18T09:51:05,42.805,6.029,CST-1368DR,4744,5350,12023,01.046,551
2022-05-18T09:54:07,42.805,6.029,CST-1368DR,4744,5349,12022,01.046,551
2022-05-18T09:57:08,42.805,6.029,CST-1368DR,4744,5351,12026,01.045,551
2022-05-18T10:00:10,42.805,6.029,CST-1368DR,4744,5352,12028,01.044,551
2022-05-18T10:03:11,42.805,6.029,CST-1368DR,4744,5349,12021,01.047,551
2022-05-18T10:06:13,42.805,6.029,CST-1368DR,4744,5351,12025,01.045,551
2022-05-18T10:09:14,42.805,6.029,CST-1368DR,4744,5353,12029,01.044,551
2022-05-18T10:12:16,42.805,6.029,CST-1368DR,4744,5355,12034,01.042,551
2022-05-18T10:15:18,42.805,6.029,CST-1368DR,4744,5351,12025,01.045,551
2022-05-18T10:18:19,42.805,6.029,CST-1368DR,4744,5351,12025,01.045,551
2022-05-18T10:21:21,42.805,6.029,CST-1368DR,4744,5348,12018,01.048,551
2022-05-18T10:24:22,42.805,6.029,CST-1368DR,4744,5350,12024,01.046,551
2022-05-18T10:27:24,42.805,6.029,CST-1368DR,4744,5349,12021,01.047,551
2022-05-18T10:30:25,42.805,6.029,CST-1368DR,4744,5350,12023,01.046,551
2022-05-18T10:33:27,42.805,6.029,CST-1368DR,4744,5351,12025,01.045,550
2022-05-18T10:36:29,42.805,6.029,CST-1368DR,4744,5346,12015,01.049,551
2022-05-18T10:39:30,42.805,6.029,CST-1368DR,4744,5346,12014,01.049,551
2022-05-18T10:42:32,42.805,6.029,CST-1368DR,4744,5351,12026,01.045,551
2022-05-18T10:45:33,42.805,6.029,CST-1368DR,4744,5350,12024,01.046,551
2022-05-18T10:48:35,42.805,6.029,CST-1368DR,4744,5348,12020,01.047,551
2022-05-18T10:51:37,42.805,6.029,CST-1368DR,4744,5349,12021,01.047,551
2022-05-18T10:54:38,42.805,6.029,CST-1368DR,4744,5351,12027,01.045,551
2022-05-18T10:57:40,42.805,6.029,CST-1368DR,4744,5353,12030,01.044,551
2022-05-18T11:00:41,42.805,6.029,CST-1368DR,4744,5350,12023,01.046,551
2022-05-18T11:03:43,42.805,6.029,CST-1368DR,4744,5348,12018,01.048,551
2022-05-18T11:06:44,42.805,6.029,CST-1368DR,4744,5355,12034,01.042,551
2022-05-18T11:09:46,42.805,6.029,CST-1368DR,4744,5350,12024,01.046,551
2022-05-18T11:12:48,42.805,6.029,CST-1368DR,4744,5351,12027,01.045,551
2022-05-18T11:15:49,42.805,6.029,CST-1368DR,4744,5353,12030,01.044,551
2022-05-18T11:18:51,42.805,6.029,CST-1368DR,4744,5352,12029,01.044,551
2022-05-18T11:21:52,42.805,6.029,CST-1368DR,4744,5352,12027,01.045,551
2022-05-18T11:24:54,42.805,6.029,CST-1368DR,4744,5347,12016,01.048,551
2022-05-18T11:27:55,42.805,6.029,CST-1368DR,4744,5351,12025,01.045,551
2022-05-18T11:30:57,42.805,6.029,CST-1368DR,4744,5349,12020,01.047,551
2022-05-18T11:33:59,42.805,6.029,CST-1368DR,4744,5354,12033,01.043,551
2022-05-18T11:37:00,42.805,6.029,CST-1368DR,4744,5349,12020,01.047,551
2022-05-18T11:40:02,42.805,6.029,CST-1368DR,4744,5349,12022,01.046,551
2022-05-18T11:43:03,42.805,6.029,CST-1368DR,4744,5351,12026,01.045,551
2022-05-18T11:46:05,42.805,6.029,CST-1368DR,4744,5350,12023,01.046,551
2022-05-18T11:49:06,42.805,6.029,CST-1368DR,4744,5351,12025,01.045,551
2022-05-18T11:52:08,42.805,6.029,CST-1368DR,4744,5355,12034,01.042,551
2022-05-18T11:55:10,42.805,6.029,CST-1368DR,4744,5357,12040,01.040,551
2022-05-18T11:58:11,42.805,6.029,CST-1368DR,4744,5350,12023,01.046,551
2022-05-18T12:01:13,42.805,6.029,CST-1368DR,4744,5357,12039,01.041,551
2022-05-18T12:04:14,42.805,6.029,CST-1368DR,4744,5353,12030,01.044,551
2022-05-18T12:07:16,42.805,6.029,CST-1368DR,4744,5357,12040,01.040,551
2022-05-18T12:10:18,42.805,6.029,CST-1368DR,4744,5352,12029,01.044,551
2022-05-18T12:13:19,42.805,6.029,CST-1368DR,4744,5352,12029,01.044,551
2022-05-18T12:16:21,42.805,6.029,CST-1368DR,4744,5350,12024,01.046,551
2022-05-18T12:19:22,42.805,6.029,CST-1368DR,4744,5353,12030,01.044,551
2022-05-18T12:22:24,42.805,6.029,CST-1368DR,4744,5351,12027,01.045,551
2022-05-18T12:25:25,42.805,6.029,CST-1368DR,4744,5353,12030,01.044,551
2022-05-18T12:28:27,42.805,6.029,CST-1368DR,4744,5353,12030,01.044,551
2022-05-18T12:31:29,42.805,6.029,CST-1368DR,4744,5353,12029,01.044,551
2022-05-18T12:34:30,42.805,6.029,CST-1368DR,4744,5355,12034,01.042,551
2022-05-18T12:37:32,42.805,6.029,CST-1368DR,4744,5347,12017,01.048,551
2022-05-18T12:40:33,42.805,6.029,CST-1368DR,4744,5352,12027,01.045,551
2022-05-18T12:43:35,42.805,6.029,CST-1368DR,4744,5354,12032,01.043,551
2022-05-18T12:46:36,42.805,6.029,CST-1368DR,4744,5355,12035,01.042,551
2022-05-18T12:49:38,42.805,6.029,CST-1368DR,4744,5351,12027,01.045,551
2022-05-18T12:52:40,42.805,6.029,CST-1368DR,4744,5350,12024,01.046,551
2022-05-18T12:55:41,42.805,6.029,CST-1368DR,4744,5350,12024,01.046,551
2022-05-18T12:58:43,42.805,6.029,CST-1368DR,4744,5352,12029,01.044,551
2022-05-18T13:01:44,42.805,6.029,CST-1368DR,4744,5351,12027,01.045,551
2022-05-18T13:04:46,42.805,6.029,CST-1368DR,4744,5350,12024,01.046,551
2022-05-18T13:07:48,42.805,6.029,CST-1368DR,4744,5351,12025,01.045,551
2022-05-18T13:10:49,42.805,6.029,CST-1368DR,4744,5348,12020,01.047,551
2022-05-18T13:13:51,42.805,6.029,CST-1368DR,4744,5351,12025,01.045,551
2022-05-18T13:16:52,42.805,6.029,CST-1368DR,4744,5351,12027,01.045,551
2022-05-18T13:19:54,42.805,6.029,CST-1368DR,4744,5353,12031,01.043,551
2022-05-18T13:22:55,42.805,6.029,CST-1368DR,4744,5351,12027,01.045,551
2022-05-18T13:25:57,42.805,6.029,CST-1368DR,4744,5352,12028,01.044,551
2022-05-18T13:28:59,42.805,6.029,CST-1368DR,4744,5352,12028,01.044,551
2022-05-18T13:32:00,42.805,6.029,CST-1368DR,4744,5356,12037,01.041,551
2022-05-18T13:35:02,42.805,6.029,CST-1368DR,4744,5354,12032,01.043,551
2022-05-18T13:38:03,42.805,6.029,CST-1368DR,4744,5355,12035,01.042,551
2022-05-18T13:41:05,42.805,6.029,CST-1368DR,4744,5353,12030,01.044,551
2022-05-18T13:44:06,42.805,6.029,CST-1368DR,4744,5355,12035,01.042,551
2022-05-18T13:47:08,42.805,6.029,CST-1368DR,4744,5355,12035,01.042,551
2022-05-18T13:50:10,42.805,6.029,CST-1368DR,4744,5356,12038,01.041,551
2022-05-18T13:53:11,42.805,6.029,CST-1368DR,4744,5356,12038,01.041,551
2022-05-18T13:56:13,42.805,6.029,CST-1368DR,4744,5357,12039,01.041,551
2022-05-18T13:59:14,42.805,6.029,CST-1368DR,4744,5354,12032,01.043,551
2022-05-18T14:02:16,42.805,6.029,CST-1368DR,4744,5357,12038,01.041,551
2022-05-18T14:05:18,42.805,6.029,CST-1368DR,4744,5355,12035,01.042,551
2022-05-18T14:08:19,42.805,6.029,CST-1368DR,4744,5354,12033,01.043,551
2022-05-18T14:11:21,42.805,6.029,CST-1368DR,4744,5352,12028,01.044,551
2022-05-18T14:14:22,42.805,6.029,CST-1368DR,4744,5354,12032,01.043,551
2022-05-18T14:17:24,42.805,6.029,CST-1368DR,4744,5355,12034,01.042,551
2022-05-18T14:20:25,42.805,6.029,CST-1368DR,4744,5358,12041,01.040,551
2022-05-18T14:23:27,42.805,6.029,CST-1368DR,4744,5354,12032,01.043,551
2022-05-18T14:26:29,42.805,6.029,CST-1368DR,4744,5353,12031,01.043,551
2022-05-18T14:29:30,42.805,6.029,CST-1368DR,4744,5354,12033,01.043,551
2022-05-18T14:32:32,42.805,6.029,CST-1368DR,4744,5356,12037,01.041,551
2022-05-18T14:35:33,42.805,6.029,CST-1368DR,4744,5353,12030,01.044,551
2022-05-18T14:38:35,42.805,6.029,CST-1368DR,4744,5356,12038,01.041,551
2022-05-18T14:41:36,42.805,6.029,CST-1368DR,4744,5356,12037,01.041,551
2022-05-18T14:44:38,42.805,6.029,CST-1368DR,4744,5354,12032,01.043,551
2022-05-18T14:47:40,42.805,6.029,CST-1368DR,4744,5355,12034,01.042,551
2022-05-18T14:50:41,42.805,6.029,CST-1368DR,4744,5354,12033,01.043,551
2022-05-18T14:53:43,42.805,6.029,CST-1368DR,4744,5354,12033,01.043,551
2022-05-18T14:56:44,42.805,6.029,CST-1368DR,4744,5358,12042,01.040,551
2022-05-18T14:59:46,42.805,6.029,CST-1368DR,4744,5358,12041,01.040,551
2022-05-18T15:02:48,42.805,6.029,CST-1368DR,4744,5358,12041,01.040,551
2022-05-18T15:05:49,42.805,6.029,CST-1368DR,4744,5355,12036,01.042,551
2022-05-18T15:08:51,42.805,6.029,CST-1368DR,4744,5354,12032,01.043,551
2022-05-18T15:11:52,42.805,6.029,CST-1368DR,4744,5355,12034,01.042,551
2022-05-18T15:14:54,42.805,6.029,CST-1368DR,4744,5357,12040,01.040,551
2022-05-18T15:17:55,42.805,6.029,CST-1368DR,4744,5356,12037,01.041,551
2022-05-18T15:20:57,42.805,6.029,CST-1368DR,4744,5356,12038,01.041,551
2022-05-18T15:23:59,42.805,6.029,CST-1368DR,4744,5354,12033,01.043,551
2022-05-18T15:27:00,42.805,6.029,CST-1368DR,4744,5352,12027,01.045,551
2022-05-18T15:30:02,42.805,6.029,CST-1368DR,4744,5354,12033,01.043,551
2022-05-18T15:33:03,42.805,6.029,CST-1368DR,4744,5356,12037,01.041,551
2022-05-18T15:36:05,42.805,6.029,CST-1368DR,4744,5354,12033,01.043,551
2022-05-18T15:39:07,42.805,6.029,CST-1368DR,4744,5356,12037,01.041,551
2022-05-18T15:42:08,42.805,6.029,CST-1368DR,4744,5355,12034,01.042,551
2022-05-18T15:45:10,42.805,6.029,CST-1368DR,4744,5354,12032,01.043,551
2022-05-18T15:48:11,42.805,6.029,CST-1368DR,4744,5353,12030,01.044,551
2022-05-18T15:51:13,42.805,6.029,CST-1368DR,4744,5355,12034,01.042,551
2022-05-18T15:54:14,42.805,6.029,CST-1368DR,4744,5354,12032,01.043,551
2022-05-18T15:57:16,42.805,6.029,CST-1368DR,4744,5356,12037,01.041,551
2022-05-18T16:00:18,42.805,6.029,CST-1368DR,4744,5352,12029,01.044,551
2022-05-18T16:03:19,42.805,6.029,CST-1368DR,4744,5355,12034,01.042,551
2022-05-18T16:06:21,42.805,6.029,CST-1368DR,4744,5354,12032,01.043,551
2022-05-18T16:09:22,42.805,6.029,CST-1368DR,4744,5354,12032,01.043,551
2022-05-18T16:12:24,42.805,6.029,CST-1368DR,4744,5353,12031,01.043,551
2022-05-18T16:15:25,42.805,6.029,CST-1368DR,4744,5353,12029,01.044,551
2022-05-18T16:18:27,42.805,6.029,CST-1368DR,4744,5354,12032,01.043,551
2022-05-18T16:21:29,42.805,6.029,CST-1368DR,4744,5354,12033,01.043,551
2022-05-18T16:24:30,42.805,6.029,CST-1368DR,4744,5354,12032,01.043,551
2022-05-18T16:27:32,42.805,6.029,CST-1368DR,4744,5354,12032,01.043,551
2022-05-18T16:30:33,42.805,6.029,CST-1368DR,4744,5354,12033,01.043,551
2022-05-18T16:33:35,42.805,6.029,CST-1368DR,4744,5354,12033,01.043,551
2022-05-18T16:36:37,42.805,6.029,CST-1368DR,4744,5353,12030,01.044,551